Tracking 27112 objects as of 27-Mar-2023
HD Live streaming from Space Station
objects crossing your sky now

COSMOS 1823 DEB

Track COSMOS 1823 DEB now!
10-day predictions


NORAD ID: 29357
Int'l Code: 1987-020DY
Perigee: 1,156.9 km
Apogee: 1,497.6 km
Inclination: 73.8 °
Period: 112.0 minutes
Semi major axis: 7698 km
RCS: 0.003 m2 (small)
Launch date: February 20, 1987
Source: Commonwealth of Independent States (former USSR) (CIS)
Launch site: PLESETSK MISSILE AND SPACE COMPLEX (PKMTR)

Note: This is SATELLITE DEBRIS
Your satellite tracking list
Your tracking list is empty




NASA's NSSDC Master Catalog

Two Line Element Set (TLE):
1 29357U 87020DY  23083.09747582  .00000000  00000-0  69976-4 0  9992
2 29357  73.7954  12.4305 0221281 212.9269 158.5676 12.85341374450493
Source of the keplerian elements: AFSPC